Home   Weather   Cuiabá   Past weeks

Flag for Brazil Past Weather in Cuiabá, Mato Grosso, Brazil — Yesterday and Last 2 Weeks

Now
75 °F

Partly sunny.


Feels Like: 76 °F
Forecast: 69 / 93 °F
Wind: 2 mph from Southeast

Location: Cuiaba Aeroporto

Current Time: Aug 18, 2017 at 8:37:26 am

Latest Report: Aug 18, 2017 at 8:00 am


Visibility: N/A

Pressure: 29.98 "Hg

Humidity: 78%

Dew Point: 68 °F

Location of CuiabáLocation

Past Weather in Cuiabá — Graph

°F

Cuiabá Temperature Yesterday

Maximum temperature yesterday: 90 °F (at 2:00 pm)
Minimum temperature yesterday: 73 °F (at 5:00 am)
Average temperature yesterday: 80 °F

High & Low Weather Summary for the Past Weeks

 TemperatureHumidityPressure
High100 °F (Aug 7, 2:00 pm)100% (Aug 4, 9:00 am)30.24 "Hg (Aug 4, 9:00 am)
Low52 °F (Aug 4, 9:00 am)11% (Aug 9, 4:00 pm)29.77 "Hg (Aug 11, 3:00 pm)
Average81 °F52%29.93 "Hg
* Reported Aug 3 7:00 am — Aug 18 7:00 am, Cuiabá. Weather by CustomWeather, © 2017

Note: Actual official high and low records may vary slightly from our data, if they occured in-between our weather recording intervals... More about our weather records

Advertising

Cuiabá Weather History for the Previous 24 Hours

Scroll right to see more
 ConditionsComfort  
Time TempWeatherWind HumidityBarometerVisibility
7:00 am
Fri, Aug 18
73 °FPartly sunny.5 mph89%29.98 "HgN/A
6:00 am72 °FPartly sunny.6 mph94%29.95 "HgN/A
5:00 am72 °FPassing clouds.6 mph94%29.92 "HgN/A
4:00 am72 °FPassing clouds.6 mph94%29.95 "HgN/A
3:00 am73 °FPassing clouds.6 mph89%29.95 "HgN/A
2:00 am73 °FClear.8 mph89%29.95 "Hg10 mi
1:00 am75 °FClear.8 mph83%29.95 "Hg10 mi
12:00 am75 °FClear.8 mph83%29.98 "Hg10 mi
11:00 pm
Thu, Aug 17
75 °FClear.8 mph83%29.98 "Hg10 mi
10:00 pm77 °FClear.10 mph74%29.98 "Hg10 mi
9:00 pm81 °FClear.10 mph62%29.95 "Hg10 mi
8:00 pm81 °FClear.10 mph62%29.89 "Hg10 mi
7:00 pm82 °FClear.8 mph58%29.86 "Hg10 mi
6:00 pm84 °FClear.8 mph55%29.86 "Hg10 mi
5:00 pm88 °FSunny.8 mph46%29.83 "Hg10 mi
4:00 pm90 °FSunny.5 mph43%29.83 "Hg10 mi
3:00 pm90 °FSunny.2 mph43%29.83 "Hg10 mi
2:00 pm90 °FSunny.3 mph46%29.83 "Hg10 mi
1:00 pm86 °FSunny.2 mph52%29.89 "Hg10 mi
12:00 pm84 °FScattered clouds.3 mph55%29.92 "HgN/A
11:00 am81 °FScattered clouds.5 mph66%29.95 "HgN/A
10:00 am77 °FPartly sunny.7 mph74%29.98 "HgN/A
9:00 am77 °FBroken clouds.7 mph74%29.98 "HgN/A
8:00 am75 °FBroken clouds.8 mph78%29.98 "HgN/A
Weather by CustomWeather, © 2017

See weather overviewHow to use our weather pages